Time,TemperatureF,DewpointF,PressureIn,WindDirection,WindDirectionDegrees,WindSpeedMPH,WindSpeedGustMPH,Humidity,HourlyPrecipIn,Conditions,Clouds,dailyrainin,SoftwareType,DateUTC
2013-12-10 00:01:00,-11.2,-15.1,27.68,SW,221,0.0,3.0,82,0.00,,---,0.01,VWS V14.01,2013-12-10 06:01:00,
2013-12-10 00:06:00,-11.3,-15.2,27.68,SW,228,1.0,2.0,82,0.00,,---,0.00,VWS V14.01,2013-12-10 06:06:00,
2013-12-10 00:11:00,-11.4,-15.4,27.68,SW,232,1.0,1.0,82,0.00,,---,0.00,VWS V14.01,2013-12-10 06:11:00,
2013-12-10 00:17:00,-11.5,-15.4,27.68,SW,234,0.0,2.0,82,0.00,,---,0.00,VWS V14.01,2013-12-10 06:17:00,
2013-12-10 00:22:00,-11.6,-15.5,27.68,WSW,244,3.0,3.0,82,0.00,,---,0.00,VWS V14.01,2013-12-10 06:22:00,
2013-12-10 00:27:00,-11.7,-15.6,27.68,WSW,257,1.0,2.0,82,0.00,,---,0.00,VWS V14.01,2013-12-10 06:27:00,
2013-12-10 00:32:00,-11.9,-15.8,27.68,WSW,246,0.0,2.0,82,0.00,,---,0.00,VWS V14.01,2013-12-10 06:32:00,
2013-12-10 00:37:00,-12.0,-15.9,27.68,WSW,252,2.0,3.0,82,0.00,,---,0.00,VWS V14.01,2013-12-10 06:37:00,
2013-12-10 00:43:00,-12.1,-16.0,27.68,West,269,2.0,5.0,82,0.00,,---,0.00,VWS V14.01,2013-12-10 06:43:00,
2013-12-10 00:48:00,-12.1,-16.0,27.68,WSW,258,0.0,2.0,82,0.00,,---,0.00,VWS V14.01,2013-12-10 06:48:00,
2013-12-10 00:53:00,-12.2,-16.4,27.68,West,259,3.0,4.0,81,0.00,,---,0.00,VWS V14.01,2013-12-10 06:53:00,
2013-12-10 00:58:00,-12.4,-16.6,27.68,West,276,1.0,3.0,81,0.00,,---,0.00,VWS V14.01,2013-12-10 06:58:00,
2013-12-10 01:03:00,-12.5,-16.7,27.67,West,267,2.0,3.0,81,0.00,,---,0.00,VWS V14.01,2013-12-10 07:03:00,
2013-12-10 01:09:00,-12.7,-16.9,27.67,West,272,3.0,4.0,81,0.00,,---,0.00,VWS V14.01,2013-12-10 07:09:00,
2013-12-10 01:14:00,-12.8,-16.7,27.67,WSW,239,1.0,2.0,82,0.00,,---,0.00,VWS V14.01,2013-12-10 07:14:00,
2013-12-10 01:19:00,-12.9,-16.8,27.67,SW,233,2.0,3.0,82,0.00,,---,0.00,VWS V14.01,2013-12-10 07:19:00,
2013-12-10 01:24:00,-13.0,-17.1,27.67,SSW,200,4.0,5.0,81,0.00,,---,0.00,VWS V14.01,2013-12-10 07:24:00,
2013-12-10 01:29:00,-13.0,-16.9,27.67,SSW,209,5.0,7.0,82,0.00,,---,0.00,VWS V14.01,2013-12-10 07:29:00,
2013-12-10 01:35:00,-12.9,-16.8,27.67,SW,221,1.0,4.0,82,0.00,,---,0.00,VWS V14.01,2013-12-10 07:35:00,
2013-12-10 01:40:00,-12.9,-16.8,27.67,SSW,209,4.0,4.0,82,0.00,,---,0.00,VWS V14.01,2013-12-10 07:40:00,
2013-12-10 01:45:00,-13.0,-17.1,27.67,SW,230,3.0,4.0,81,0.00,,---,0.00,VWS V14.01,2013-12-10 07:45:00,
2013-12-10 01:50:00,-13.0,-17.1,27.67,SW,221,1.0,3.0,81,0.00,,---,0.00,VWS V14.01,2013-12-10 07:50:00,
2013-12-10 01:56:00,-13.1,-17.2,27.67,SW,221,1.0,2.0,81,0.00,,---,0.00,VWS V14.01,2013-12-10 07:56:00,
2013-12-10 02:01:00,-13.3,-17.5,27.66,SW,221,0.0,2.0,81,0.00,,---,0.00,VWS V14.01,2013-12-10 08:01:00,
2013-12-10 02:06:00,-13.3,-17.5,27.66,SW,221,0.0,2.0,81,0.00,,---,0.00,VWS V14.01,2013-12-10 08:06:00,
2013-12-10 02:11:00,-13.5,-17.6,27.66,SW,221,0.0,0.0,81,0.00,,---,0.00,VWS V14.01,2013-12-10 08:11:00,
2013-12-10 02:16:00,-13.6,-17.7,27.65,SW,221,0.0,0.0,81,0.00,,---,0.00,VWS V14.01,2013-12-10 08:16:00,
2013-12-10 02:21:00,-13.9,-18.0,27.65,SW,221,0.0,0.0,81,0.00,,---,0.00,VWS V14.01,2013-12-10 08:21:00,
2013-12-10 02:26:00,-14.1,-18.2,27.65,SW,221,0.0,0.0,81,0.00,,---,0.00,VWS V14.01,2013-12-10 08:26:00,
2013-12-10 02:31:00,-14.5,-18.9,27.65,SW,221,0.0,0.0,80,0.00,,---,0.00,VWS V14.01,2013-12-10 08:31:00,
2013-12-10 02:36:00,-14.9,-19.2,27.65,SW,221,0.0,0.0,80,0.00,,---,0.00,VWS V14.01,2013-12-10 08:36:00,
2013-12-10 02:41:00,-15.0,-19.1,27.65,SW,221,0.0,0.0,81,0.00,,---,0.00,VWS V14.01,2013-12-10 08:41:00,
2013-12-10 02:46:00,-14.8,-18.9,27.65,SW,221,0.0,1.0,81,0.00,,---,0.00,VWS V14.01,2013-12-10 08:46:00,
2013-12-10 02:51:00,-14.7,-18.8,27.65,SW,221,0.0,0.0,81,0.00,,---,0.00,VWS V14.01,2013-12-10 08:51:00,
2013-12-10 02:56:00,-14.5,-18.6,27.65,SW,221,0.0,0.0,81,0.00,,---,0.00,VWS V14.01,2013-12-10 08:56:00,
2013-12-10 03:01:00,-14.4,-18.5,27.65,SW,221,0.0,0.0,81,0.00,,---,0.00,VWS V14.01,2013-12-10 09:01:00,
2013-12-10 03:05:00,-14.3,-18.4,27.65,SW,221,0.0,0.0,81,0.00,,---,0.00,VWS V14.01,2013-12-10 09:05:00,
2013-12-10 03:10:00,-14.3,-18.4,27.65,SW,221,0.0,0.0,81,0.00,,---,0.00,VWS V14.01,2013-12-10 09:10:00,
2013-12-10 03:15:00,-14.3,-18.4,27.65,SW,221,0.0,0.0,81,0.00,,---,0.00,VWS V14.01,2013-12-10 09:15:00,
2013-12-10 03:20:00,-14.4,-18.5,27.64,SW,221,0.0,0.0,81,0.00,,---,0.00,VWS V14.01,2013-12-10 09:20:00,
2013-12-10 03:25:00,-14.6,-19.0,27.64,SW,221,0.0,0.0,80,0.00,,---,0.00,VWS V14.01,2013-12-10 09:25:00,
2013-12-10 03:30:00,-14.6,-18.7,27.64,SW,221,0.0,0.0,81,0.00,,---,0.00,VWS V14.01,2013-12-10 09:30:00,
2013-12-10 03:36:00,-14.7,-18.8,27.64,SW,221,0.0,0.0,81,0.00,,---,0.00,VWS V14.01,2013-12-10 09:36:00,
2013-12-10 03:41:00,-14.8,-18.9,27.64,SW,221,0.0,0.0,81,0.00,,---,0.00,VWS V14.01,2013-12-10 09:41:00,
2013-12-10 03:46:00,-15.0,-19.4,27.64,SW,221,0.0,0.0,80,0.00,,---,0.00,VWS V14.01,2013-12-10 09:46:00,
2013-12-10 03:51:00,-15.0,-19.1,27.64,SW,221,0.0,0.0,81,0.00,,---,0.00,VWS V14.01,2013-12-10 09:51:00,
2013-12-10 03:56:00,-15.1,-19.2,27.64,SW,221,0.0,0.0,81,0.00,,---,0.00,VWS V14.01,2013-12-10 09:56:00,
2013-12-10 04:01:00,-15.2,-19.5,27.64,SW,221,0.0,0.0,80,0.00,,---,0.00,VWS V14.01,2013-12-10 10:01:00,
2013-12-10 04:06:00,-15.2,-19.3,27.64,SW,221,0.0,0.0,81,0.00,,---,0.00,VWS V14.01,2013-12-10 10:06:00,
2013-12-10 04:11:00,-15.3,-19.6,27.64,SW,221,0.0,0.0,80,0.00,,---,0.00,VWS V14.01,2013-12-10 10:11:00,
2013-12-10 04:16:00,-15.3,-19.4,27.63,SW,221,0.0,0.0,81,0.00,,---,0.00,VWS V14.01,2013-12-10 10:16:00,
2013-12-10 04:21:00,-15.2,-19.3,27.63,SW,221,0.0,0.0,81,0.00,,---,0.00,VWS V14.01,2013-12-10 10:21:00,
2013-12-10 04:27:00,-15.0,-19.1,27.63,SW,221,0.0,0.0,81,0.00,,---,0.00,VWS V14.01,2013-12-10 10:27:00,
2013-12-10 04:32:00,-14.9,-19.0,27.63,SW,221,0.0,1.0,81,0.00,,---,0.00,VWS V14.01,2013-12-10 10:32:00,
2013-12-10 04:37:00,-14.8,-18.9,27.63,SW,221,0.0,0.0,81,0.00,,---,0.00,VWS V14.01,2013-12-10 10:37:00,
2013-12-10 04:42:00,-14.9,-19.0,27.63,SW,221,0.0,0.0,81,0.00,,---,0.00,VWS V14.01,2013-12-10 10:42:00,
2013-12-10 04:47:00,-14.9,-19.0,27.63,SW,221,0.0,0.0,81,0.00,,---,0.00,VWS V14.01,2013-12-10 10:47:00,
2013-12-10 04:53:00,-14.7,-18.8,27.63,SW,221,0.0,1.0,81,0.00,,---,0.00,VWS V14.01,2013-12-10 10:53:00,
2013-12-10 04:58:00,-14.7,-18.8,27.63,SW,221,1.0,2.0,81,0.00,,---,0.00,VWS V14.01,2013-12-10 10:58:00,
2013-12-10 05:03:00,-14.7,-18.8,27.63,SW,221,0.0,1.0,81,0.00,,---,0.00,VWS V14.01,2013-12-10 11:03:00,
2013-12-10 05:08:00,-15.0,-19.4,27.63,SW,221,0.0,1.0,80,0.00,,---,0.00,VWS V14.01,2013-12-10 11:08:00,
2013-12-10 05:13:00,-15.2,-19.3,27.63,SW,221,0.0,0.0,81,0.00,,---,0.00,VWS V14.01,2013-12-10 11:13:00,
2013-12-10 05:18:00,-15.5,-19.8,27.63,SW,221,0.0,0.0,80,0.00,,---,0.00,VWS V14.01,2013-12-10 11:18:00,
2013-12-10 05:23:00,-16.0,-20.6,27.63,SW,221,0.0,0.0,79,0.00,,---,0.00,VWS V14.01,2013-12-10 11:23:00,
2013-12-10 05:29:00,-16.2,-20.5,27.63,SW,221,0.0,0.0,80,0.00,,---,0.00,VWS V14.01,2013-12-10 11:29:00,
2013-12-10 05:34:00,-16.5,-21.1,27.62,SW,221,0.0,0.0,79,0.00,,---,0.00,VWS V14.01,2013-12-10 11:34:00,
2013-12-10 05:39:00,-16.9,-21.5,27.62,SW,221,0.0,0.0,79,0.00,,---,0.00,VWS V14.01,2013-12-10 11:39:00,
2013-12-10 05:44:00,-17.1,-21.6,27.62,SW,221,0.0,0.0,79,0.00,,---,0.00,VWS V14.01,2013-12-10 11:44:00,
2013-12-10 05:49:00,-17.0,-21.1,27.63,SW,221,0.0,0.0,81,0.00,,---,0.00,VWS V14.01,2013-12-10 11:49:00,
2013-12-10 05:54:00,-16.3,-20.4,27.63,SW,221,0.0,0.0,81,0.00,,---,0.00,VWS V14.01,2013-12-10 11:54:00,
2013-12-10 06:00:00,-16.1,-20.2,27.63,SW,221,0.0,0.0,81,0.00,,---,0.00,VWS V14.01,2013-12-10 12:00:00,
2013-12-10 06:05:00,-16.3,-20.6,27.62,SW,221,0.0,0.0,80,0.00,,---,0.00,VWS V14.01,2013-12-10 12:05:00,
2013-12-10 06:10:00,-16.5,-20.8,27.62,SW,221,0.0,0.0,80,0.00,,---,0.00,VWS V14.01,2013-12-10 12:10:00,
2013-12-10 06:15:00,-16.8,-21.1,27.62,SW,221,0.0,0.0,80,0.00,,---,0.00,VWS V14.01,2013-12-10 12:15:00,
2013-12-10 06:20:00,-17.2,-21.7,27.63,SW,221,0.0,0.0,79,0.00,,---,0.00,VWS V14.01,2013-12-10 12:20:00,
2013-12-10 06:25:00,-17.5,-22.0,27.63,SW,221,0.0,0.0,79,0.00,,---,0.00,VWS V14.01,2013-12-10 12:25:00,
2013-12-10 06:30:00,-17.8,-22.3,27.62,SW,221,0.0,0.0,79,0.00,,---,0.00,VWS V14.01,2013-12-10 12:30:00,
2013-12-10 06:36:00,-18.1,-22.6,27.62,SW,221,0.0,0.0,79,0.00,,---,0.00,VWS V14.01,2013-12-10 12:36:00,
2013-12-10 06:41:00,-18.4,-22.9,27.62,SW,221,0.0,0.0,79,0.00,,---,0.00,VWS V14.01,2013-12-10 12:41:00,
2013-12-10 06:46:00,-18.8,-23.5,27.62,SW,221,0.0,0.0,78,0.00,,---,0.00,VWS V14.01,2013-12-10 12:46:00,
2013-12-10 06:51:00,-19.2,-23.9,27.62,SW,221,0.0,0.0,78,0.00,,---,0.00,VWS V14.01,2013-12-10 12:51:00,
2013-12-10 06:56:00,-19.4,-23.9,27.62,SW,221,0.0,0.0,79,0.00,,---,0.00,VWS V14.01,2013-12-10 12:56:00,
2013-12-10 07:01:00,-19.5,-24.0,27.61,SW,221,0.0,0.0,79,0.00,,---,0.00,VWS V14.01,2013-12-10 13:01:00,
2013-12-10 07:06:00,-19.7,-24.2,27.61,SW,221,0.0,0.0,79,0.00,,---,0.00,VWS V14.01,2013-12-10 13:06:00,
2013-12-10 07:11:00,-19.8,-24.3,27.61,SW,221,0.0,0.0,79,0.00,,---,0.00,VWS V14.01,2013-12-10 13:11:00,
2013-12-10 07:17:00,-19.9,-24.4,27.61,SW,221,0.0,0.0,79,0.00,,---,0.00,VWS V14.01,2013-12-10 13:17:00,
2013-12-10 07:22:00,-20.0,-24.5,27.61,SW,221,0.0,0.0,79,0.00,,---,0.00,VWS V14.01,2013-12-10 13:22:00,
2013-12-10 07:27:00,-20.3,-25.0,27.61,SW,221,0.0,0.0,78,0.00,,---,0.00,VWS V14.01,2013-12-10 13:27:00,
2013-12-10 07:32:00,-20.7,-25.4,27.61,SW,221,0.0,0.0,78,0.00,,---,0.00,VWS V14.01,2013-12-10 13:32:00,
2013-12-10 07:37:00,-20.9,-25.6,27.61,SW,221,0.0,0.0,78,0.00,,---,0.00,VWS V14.01,2013-12-10 13:37:00,
2013-12-10 07:42:00,-21.4,-26.3,27.61,SW,221,0.0,0.0,77,0.00,,---,0.00,VWS V14.01,2013-12-10 13:42:00,
2013-12-10 07:47:00,-21.8,-26.7,27.61,SW,221,0.0,0.0,77,0.00,,---,0.00,VWS V14.01,2013-12-10 13:47:00,
2013-12-10 07:53:00,-22.0,-26.7,27.61,SW,221,0.0,0.0,78,0.00,,---,0.00,VWS V14.01,2013-12-10 13:53:00,
2013-12-10 07:58:00,-22.3,-27.0,27.61,SW,221,0.0,0.0,78,0.00,,---,0.00,VWS V14.01,2013-12-10 13:58:00,
2013-12-10 08:03:00,-22.4,-27.1,27.61,SW,221,0.0,0.0,78,0.00,,---,0.00,VWS V14.01,2013-12-10 14:03:00,
2013-12-10 08:08:00,-22.3,-26.7,27.61,SW,221,0.0,0.0,79,0.00,,---,0.00,VWS V14.01,2013-12-10 14:08:00,
2013-12-10 08:13:00,-21.9,-26.3,27.61,SW,221,0.0,0.0,79,0.00,,---,0.00,VWS V14.01,2013-12-10 14:13:00,
2013-12-10 08:18:00,-21.6,-26.0,27.62,SW,221,0.0,0.0,79,0.00,,---,0.00,VWS V14.01,2013-12-10 14:18:00,
2013-12-10 08:24:00,-20.8,-25.0,27.62,SW,221,0.0,1.0,80,0.00,,---,0.00,VWS V14.01,2013-12-10 14:24:00,
2013-12-10 08:29:00,-19.6,-23.6,27.62,SW,222,0.0,1.0,81,0.00,,---,0.00,VWS V14.01,2013-12-10 14:29:00,
2013-12-10 08:34:00,-19.1,-23.4,27.62,SW,222,0.0,0.0,80,0.00,,---,0.00,VWS V14.01,2013-12-10 14:34:00,
2013-12-10 08:39:00,-18.4,-22.4,27.62,SW,223,0.0,0.0,81,0.00,,---,0.00,VWS V14.01,2013-12-10 14:39:00,
2013-12-10 08:44:00,-17.5,-21.6,27.62,SW,223,1.0,1.0,81,0.00,,---,0.00,VWS V14.01,2013-12-10 14:44:00,
2013-12-10 08:50:00,-16.5,-20.6,27.63,SW,225,2.0,3.0,81,0.00,,---,0.00,VWS V14.01,2013-12-10 14:50:00,
2013-12-10 08:55:00,-15.3,-19.2,27.63,SW,228,2.0,2.0,82,0.00,,---,0.00,VWS V14.01,2013-12-10 14:55:00,
2013-12-10 09:00:00,-13.7,-17.6,27.63,WNW,284,2.0,5.0,82,0.00,,---,0.00,VWS V14.01,2013-12-10 15:00:00,
2013-12-10 09:05:00,-12.4,-16.1,27.63,WSW,248,5.0,5.0,83,0.00,,---,0.00,VWS V14.01,2013-12-10 15:05:00,
2013-12-10 09:10:00,-11.4,-15.4,27.63,WNW,287,5.0,5.0,82,0.00,,---,0.00,VWS V14.01,2013-12-10 15:10:00,
2013-12-10 09:15:00,-10.7,-14.4,27.63,West,272,2.0,2.0,83,0.00,,---,0.00,VWS V14.01,2013-12-10 15:15:00,
2013-12-10 09:20:00,-10.2,-14.2,27.63,WSW,249,0.0,3.0,82,0.00,,---,0.00,VWS V14.01,2013-12-10 15:20:00,
2013-12-10 09:26:00,-9.9,-13.9,27.63,West,281,1.0,7.0,82,0.00,,---,0.00,VWS V14.01,2013-12-10 15:26:00,
2013-12-10 09:31:00,-9.9,-13.9,27.63,West,276,7.0,8.0,82,0.00,,---,0.00,VWS V14.01,2013-12-10 15:31:00,
2013-12-10 09:36:00,-10.0,-14.0,27.63,WNW,290,2.0,6.0,82,0.00,,---,0.00,VWS V14.01,2013-12-10 15:36:00,
2013-12-10 09:41:00,-9.8,-13.8,27.63,NW,304,5.0,5.0,82,0.00,,---,0.00,VWS V14.01,2013-12-10 15:41:00,
2013-12-10 09:46:00,-9.4,-13.1,27.63,WSW,252,7.0,7.0,83,0.00,,---,0.00,VWS V14.01,2013-12-10 15:46:00,
2013-12-10 09:51:00,-9.1,-12.9,27.63,West,279,5.0,5.0,83,0.00,,---,0.00,VWS V14.01,2013-12-10 15:51:00,
2013-12-10 09:56:00,-8.9,-12.9,27.63,WNW,294,0.0,3.0,82,0.00,,---,0.00,VWS V14.01,2013-12-10 15:56:00,
2013-12-10 10:01:00,-8.9,-12.9,27.64,NNW,330,4.0,7.0,82,0.00,,---,0.00,VWS V14.01,2013-12-10 16:01:00,
2013-12-10 10:07:00,-8.9,-12.9,27.64,NW,314,2.0,7.0,82,0.00,,---,0.00,VWS V14.01,2013-12-10 16:07:00,
2013-12-10 10:12:00,-8.8,-12.8,27.64,West,274,8.0,8.0,82,0.00,,---,0.00,VWS V14.01,2013-12-10 16:12:00,
2013-12-10 10:17:00,-8.7,-12.7,27.64,WNW,284,4.0,4.0,82,0.00,,---,0.00,VWS V14.01,2013-12-10 16:17:00,
2013-12-10 10:23:00,-8.4,-12.2,27.64,WSW,255,5.0,5.0,83,0.00,,---,0.00,VWS V14.01,2013-12-10 16:23:00,
2013-12-10 10:28:00,-8.4,-12.4,27.64,West,281,4.0,7.0,82,0.00,,---,0.00,VWS V14.01,2013-12-10 16:28:00,
2013-12-10 10:33:00,-8.5,-12.5,27.63,West,270,6.0,6.0,82,0.00,,---,0.00,VWS V14.01,2013-12-10 16:33:00,
2013-12-10 10:38:00,-8.3,-12.3,27.63,West,263,5.0,8.0,82,0.00,,---,0.00,VWS V14.01,2013-12-10 16:38:00,
2013-12-10 10:43:00,-8.1,-11.9,27.63,WNW,285,4.0,6.0,83,0.00,,---,0.00,VWS V14.01,2013-12-10 16:43:00,
2013-12-10 10:49:00,-7.9,-11.9,27.64,WSW,254,4.0,9.0,82,0.00,,---,0.00,VWS V14.01,2013-12-10 16:49:00,
2013-12-10 10:54:00,-7.7,-11.7,27.64,WNW,295,4.0,6.0,82,0.00,,---,0.00,VWS V14.01,2013-12-10 16:54:00,
2013-12-10 10:59:00,-7.1,-10.9,27.64,WNW,288,5.0,9.0,83,0.00,,---,0.00,VWS V14.01,2013-12-10 16:59:00,
2013-12-10 11:04:00,-7.1,-11.1,27.64,West,269,2.0,8.0,82,0.00,,---,0.00,VWS V14.01,2013-12-10 17:04:00,
2013-12-10 11:10:00,-7.0,-11.0,27.64,West,281,2.0,3.0,82,0.00,,---,0.00,VWS V14.01,2013-12-10 17:10:00,
2013-12-10 11:15:00,-6.7,-10.7,27.64,West,280,8.0,11.0,82,0.00,,---,0.00,VWS V14.01,2013-12-10 17:15:00,
2013-12-10 11:20:00,-6.4,-10.4,27.64,West,271,3.0,7.0,82,0.00,,---,0.00,VWS V14.01,2013-12-10 17:20:00,
2013-12-10 11:25:00,-5.9,-10.0,27.64,NW,325,3.0,6.0,82,0.00,,---,0.00,VWS V14.01,2013-12-10 17:25:00,
2013-12-10 11:30:00,-5.7,-9.8,27.64,WNW,282,7.0,8.0,82,0.00,,---,0.00,VWS V14.01,2013-12-10 17:30:00,
2013-12-10 11:36:00,-5.7,-10.0,27.64,West,270,7.0,12.0,81,0.00,,---,0.00,VWS V14.01,2013-12-10 17:36:00,
2013-12-10 11:41:00,-6.0,-10.3,27.64,NNW,333,5.0,5.0,81,0.00,,---,0.00,VWS V14.01,2013-12-10 17:41:00,
2013-12-10 11:46:00,-5.9,-10.0,27.64,WNW,289,1.0,2.0,82,0.00,,---,0.00,VWS V14.01,2013-12-10 17:46:00,
2013-12-10 11:51:00,-6.1,-10.4,27.64,North,360,7.0,10.0,81,0.00,,---,0.00,VWS V14.01,2013-12-10 17:51:00,
2013-12-10 11:56:00,-6.2,-10.2,27.64,WNW,302,2.0,5.0,82,0.00,,---,0.00,VWS V14.01,2013-12-10 17:56:00,
2013-12-10 12:02:00,-6.1,-10.1,27.64,WNW,298,9.0,10.0,82,0.00,,---,0.00,VWS V14.01,2013-12-10 18:02:00,
2013-12-10 12:07:00,-6.2,-10.5,27.64,West,281,6.0,7.0,81,0.00,,---,0.00,VWS V14.01,2013-12-10 18:07:00,
2013-12-10 12:12:00,-6.2,-10.2,27.64,West,264,4.0,8.0,82,0.00,,---,0.00,VWS V14.01,2013-12-10 18:12:00,
2013-12-10 12:17:00,-6.2,-10.2,27.63,WNW,284,6.0,10.0,82,0.00,,---,0.00,VWS V14.01,2013-12-10 18:17:00,
2013-12-10 12:22:00,-6.3,-10.6,27.63,West,279,7.0,7.0,81,0.00,,---,0.00,VWS V14.01,2013-12-10 18:22:00,
2013-12-10 12:27:00,-6.4,-10.4,27.63,WNW,282,8.0,8.0,82,0.00,,---,0.00,VWS V14.01,2013-12-10 18:27:00,
2013-12-10 12:32:00,-6.4,-10.4,27.63,West,278,6.0,11.0,82,0.00,,---,0.00,VWS V14.01,2013-12-10 18:32:00,
2013-12-10 12:38:00,-6.2,-10.2,27.63,WNW,294,7.0,11.0,82,0.00,,---,0.00,VWS V14.01,2013-12-10 18:38:00,
2013-12-10 12:43:00,-6.2,-10.2,27.63,WNW,301,4.0,13.0,82,0.00,,---,0.00,VWS V14.01,2013-12-10 18:43:00,
2013-12-10 12:48:00,-6.1,-10.1,27.64,West,269,5.0,11.0,82,0.00,,---,0.00,VWS V14.01,2013-12-10 18:48:00,
2013-12-10 12:53:00,-5.8,-9.9,27.64,West,270,3.0,9.0,82,0.00,,---,0.00,VWS V14.01,2013-12-10 18:53:00,
2013-12-10 12:58:00,-5.5,-9.6,27.64,WNW,282,6.0,6.0,82,0.00,,---,0.00,VWS V14.01,2013-12-10 18:58:00,
2013-12-10 13:04:00,-5.7,-10.0,27.65,WNW,303,7.0,9.0,81,0.00,,---,0.00,VWS V14.01,2013-12-10 19:04:00,
2013-12-10 13:09:00,-6.3,-10.6,27.65,West,281,3.0,6.0,81,0.00,,---,0.00,VWS V14.01,2013-12-10 19:09:00,
2013-12-10 13:14:00,-6.5,-10.8,27.65,West,271,4.0,7.0,81,0.00,,---,0.00,VWS V14.01,2013-12-10 19:14:00,
2013-12-10 13:19:00,-6.6,-10.9,27.65,West,265,14.0,14.0,81,0.00,,---,0.00,VWS V14.01,2013-12-10 19:19:00,
2013-12-10 13:24:00,-6.7,-11.0,27.65,WNW,298,8.0,9.0,81,0.00,,---,0.00,VWS V14.01,2013-12-10 19:24:00,
2013-12-10 13:29:00,-6.7,-11.0,27.65,NW,325,9.0,9.0,81,0.00,,---,0.00,VWS V14.01,2013-12-10 19:29:00,
2013-12-10 13:34:00,-6.7,-11.0,27.65,WNW,288,4.0,6.0,81,0.00,,---,0.00,VWS V14.01,2013-12-10 19:34:00,
2013-12-10 13:39:00,-6.5,-10.8,27.65,WNW,297,2.0,2.0,81,0.00,,---,0.00,VWS V14.01,2013-12-10 19:39:00,
2013-12-10 13:44:00,-6.4,-10.7,27.65,West,265,7.0,7.0,81,0.00,,---,0.00,VWS V14.01,2013-12-10 19:44:00,
2013-12-10 13:49:00,-6.5,-8.2,27.66,West,277,6.0,6.0,92,0.00,,---,0.00,VWS V14.01,2013-12-10 19:49:00,
2013-12-10 13:55:00,-5.8,-9.9,27.66,West,259,2.0,4.0,82,0.00,,---,0.00,VWS V14.01,2013-12-10 19:55:00,
2013-12-10 14:00:00,-5.5,-10.1,27.66,WNW,294,10.0,10.0,80,0.00,,---,0.00,VWS V14.01,2013-12-10 20:00:00,
2013-12-10 14:05:00,-5.6,-10.2,27.66,WSW,257,8.0,8.0,80,0.00,,---,0.00,VWS V14.01,2013-12-10 20:05:00,
2013-12-10 14:10:00,-5.4,-9.7,27.66,NW,317,10.0,10.0,81,0.00,,---,0.00,VWS V14.01,2013-12-10 20:10:00,
2013-12-10 14:15:00,-5.4,-10.0,27.67,West,277,4.0,4.0,80,0.00,,---,0.00,VWS V14.01,2013-12-10 20:15:00,
2013-12-10 14:20:00,-5.4,-9.7,27.67,WSW,247,7.0,7.0,81,0.00,,---,0.00,VWS V14.01,2013-12-10 20:20:00,
2013-12-10 14:26:00,-5.3,-9.9,27.67,WNW,290,4.0,8.0,80,0.00,,---,0.00,VWS V14.01,2013-12-10 20:26:00,
2013-12-10 14:31:00,-5.1,-9.7,27.68,West,271,10.0,12.0,80,0.00,,---,0.00,VWS V14.01,2013-12-10 20:31:00,
2013-12-10 14:36:00,-5.1,-9.7,27.68,WNW,298,2.0,8.0,80,0.00,,---,0.00,VWS V14.01,2013-12-10 20:36:00,
2013-12-10 14:41:00,-4.9,-9.5,27.68,WNW,294,11.0,14.0,80,0.00,,---,0.00,VWS V14.01,2013-12-10 20:41:00,
2013-12-10 14:46:00,-5.2,-10.0,27.69,WNW,297,11.0,11.0,79,0.00,,---,0.00,VWS V14.01,2013-12-10 20:46:00,
2013-12-10 14:51:00,-5.3,-9.9,27.69,WNW,298,7.0,7.0,80,0.00,,---,0.00,VWS V14.01,2013-12-10 20:51:00,
2013-12-10 14:57:00,-5.4,-10.0,27.69,West,259,5.0,16.0,80,0.00,,---,0.00,VWS V14.01,2013-12-10 20:57:00,
2013-12-10 15:02:00,-5.5,-10.3,27.70,West,271,3.0,7.0,79,0.00,,---,0.00,VWS V14.01,2013-12-10 21:02:00,
2013-12-10 15:07:00,-5.8,-10.4,27.70,WNW,287,3.0,9.0,80,0.00,,---,0.00,VWS V14.01,2013-12-10 21:07:00,
2013-12-10 15:13:00,-6.0,-10.6,27.70,West,261,13.0,13.0,80,0.00,,---,0.00,VWS V14.01,2013-12-10 21:13:00,
2013-12-10 15:18:00,-6.2,-10.8,27.71,West,281,14.0,14.0,80,0.00,,---,0.00,VWS V14.01,2013-12-10 21:18:00,
2013-12-10 15:23:00,-6.4,-10.9,27.71,West,269,10.0,11.0,80,0.00,,---,0.00,VWS V14.01,2013-12-10 21:23:00,
2013-12-10 15:28:00,-6.5,-11.0,27.71,West,280,8.0,8.0,80,0.00,,---,0.00,VWS V14.01,2013-12-10 21:28:00,
2013-12-10 15:34:00,-6.7,-11.2,27.71,West,271,6.0,6.0,80,0.00,,---,0.00,VWS V14.01,2013-12-10 21:34:00,
2013-12-10 15:39:00,-6.9,-11.4,27.71,West,271,10.0,10.0,80,0.00,,---,0.00,VWS V14.01,2013-12-10 21:39:00,
2013-12-10 15:44:00,-7.1,-11.6,27.71,West,271,2.0,3.0,80,0.00,,---,0.00,VWS V14.01,2013-12-10 21:44:00,
2013-12-10 15:49:00,-7.3,-11.8,27.72,West,270,2.0,4.0,80,0.00,,---,0.00,VWS V14.01,2013-12-10 21:49:00,
2013-12-10 15:54:00,-7.6,-11.9,27.72,WSW,252,5.0,8.0,81,0.00,,---,0.00,VWS V14.01,2013-12-10 21:54:00,
2013-12-10 16:00:00,-7.9,-12.2,27.72,West,263,1.0,10.0,81,0.00,,---,0.00,VWS V14.01,2013-12-10 22:00:00,
2013-12-10 16:05:00,-8.1,-12.4,27.74,West,267,2.0,7.0,81,0.00,,---,0.00,VWS V14.01,2013-12-10 22:05:00,
2013-12-10 16:10:00,-8.2,-12.5,27.74,West,276,0.0,2.0,81,0.00,,---,0.00,VWS V14.01,2013-12-10 22:10:00,
2013-12-10 16:15:00,-8.4,-12.6,27.74,West,266,1.0,10.0,81,0.00,,---,0.00,VWS V14.01,2013-12-10 22:15:00,
2013-12-10 16:20:00,-8.5,-12.8,27.74,WSW,244,4.0,8.0,81,0.00,,---,0.00,VWS V14.01,2013-12-10 22:20:00,
2013-12-10 16:25:00,-8.6,-12.9,27.74,WNW,292,8.0,9.0,81,0.00,,---,0.00,VWS V14.01,2013-12-10 22:25:00,
2013-12-10 16:30:00,-8.6,-12.9,27.75,WNW,285,4.0,5.0,81,0.00,,---,0.00,VWS V14.01,2013-12-10 22:30:00,
2013-12-10 16:35:00,-8.7,-12.9,27.75,West,265,2.0,4.0,81,0.00,,---,0.00,VWS V14.01,2013-12-10 22:35:00,
2013-12-10 16:41:00,-8.9,-13.1,27.75,WNW,291,1.0,5.0,81,0.00,,---,0.00,VWS V14.01,2013-12-10 22:41:00,
2013-12-10 16:46:00,-9.1,-13.3,27.76,West,263,3.0,5.0,81,0.00,,---,0.00,VWS V14.01,2013-12-10 22:46:00,
2013-12-10 16:51:00,-9.1,-13.3,27.76,West,271,3.0,4.0,81,0.00,,---,0.00,VWS V14.01,2013-12-10 22:51:00,
2013-12-10 16:56:00,-9.2,-13.4,27.76,SW,234,3.0,5.0,81,0.00,,---,0.00,VWS V14.01,2013-12-10 22:56:00,
2013-12-10 17:01:00,-9.3,-13.5,27.77,West,275,4.0,6.0,81,0.00,,---,0.00,VWS V14.01,2013-12-10 23:01:00,
2013-12-10 17:06:00,-9.4,-13.6,27.77,West,275,5.0,5.0,81,0.00,,---,0.00,VWS V14.01,2013-12-10 23:06:00,
2013-12-10 17:11:00,-9.4,-13.4,27.77,West,273,4.0,5.0,82,0.00,,---,0.00,VWS V14.01,2013-12-10 23:11:00,
2013-12-10 17:17:00,-9.4,-10.6,27.78,WNW,298,3.0,10.0,94,0.00,,---,0.00,VWS V14.01,2013-12-10 23:17:00,
2013-12-10 17:22:00,-9.3,-13.3,27.78,West,275,2.0,7.0,82,0.00,,---,0.00,VWS V14.01,2013-12-10 23:22:00,
2013-12-10 17:27:00,-9.3,-13.3,27.78,WNW,296,2.0,9.0,82,0.00,,---,0.00,VWS V14.01,2013-12-10 23:27:00,
2013-12-10 17:32:00,-9.3,-13.5,27.78,West,269,0.0,6.0,81,0.00,,---,0.00,VWS V14.01,2013-12-10 23:32:00,
2013-12-10 17:37:00,-9.5,-13.5,27.78,WNW,289,2.0,7.0,82,0.00,,---,0.00,VWS V14.01,2013-12-10 23:37:00,
2013-12-10 17:42:00,-9.7,-13.7,27.78,West,280,3.0,4.0,82,0.00,,---,0.00,VWS V14.01,2013-12-10 23:42:00,
2013-12-10 17:47:00,-9.7,-13.7,27.78,West,262,3.0,6.0,82,0.00,,---,0.00,VWS V14.01,2013-12-10 23:47:00,
2013-12-10 17:52:00,-9.7,-13.7,27.78,West,275,3.0,4.0,82,0.00,,---,0.00,VWS V14.01,2013-12-10 23:52:00,
2013-12-10 17:58:00,-9.8,-13.8,27.78,WNW,296,4.0,6.0,82,0.00,,---,0.00,VWS V14.01,2013-12-10 23:58:00,
2013-12-10 18:03:00,-9.8,-13.8,27.78,WSW,250,2.0,3.0,82,0.00,,---,0.00,VWS V14.01,2013-12-11 00:03:00,
2013-12-10 18:08:00,-9.9,-13.9,27.78,West,276,3.0,3.0,82,0.00,,---,0.00,VWS V14.01,2013-12-11 00:08:00,
2013-12-10 18:13:00,-10.0,-14.0,27.78,WNW,292,7.0,7.0,82,0.00,,---,0.00,VWS V14.01,2013-12-11 00:13:00,
2013-12-10 18:19:00,-10.1,-14.1,27.80,West,271,3.0,3.0,82,0.00,,---,0.00,VWS V14.01,2013-12-11 00:19:00,
2013-12-10 18:24:00,-10.3,-14.3,27.80,WSW,252,2.0,4.0,82,0.00,,---,0.00,VWS V14.01,2013-12-11 00:24:00,
2013-12-10 18:29:00,-10.3,-14.3,27.80,West,269,1.0,2.0,82,0.00,,---,0.00,VWS V14.01,2013-12-11 00:29:00,
2013-12-10 18:34:00,-10.4,-14.4,27.80,West,259,5.0,5.0,82,0.00,,---,0.00,VWS V14.01,2013-12-11 00:34:00,
2013-12-10 18:39:00,-10.3,-14.3,27.80,West,277,3.0,8.0,82,0.00,,---,0.00,VWS V14.01,2013-12-11 00:39:00,
2013-12-10 18:45:00,-10.2,-14.2,27.80,West,273,2.0,6.0,82,0.00,,---,0.00,VWS V14.01,2013-12-11 00:45:00,
2013-12-10 18:50:00,-10.1,-14.1,27.80,WSW,255,5.0,9.0,82,0.00,,---,0.00,VWS V14.01,2013-12-11 00:50:00,
2013-12-10 18:55:00,-10.0,-14.0,27.80,West,279,6.0,7.0,82,0.00,,---,0.00,VWS V14.01,2013-12-11 00:55:00,
2013-12-10 19:00:00,-10.1,-14.1,27.80,West,275,4.0,4.0,82,0.00,,---,0.00,VWS V14.01,2013-12-11 01:00:00,
2013-12-10 19:05:00,-10.2,-14.2,27.80,WNW,295,5.0,5.0,82,0.00,,---,0.00,VWS V14.01,2013-12-11 01:05:00,
2013-12-10 19:11:00,-10.3,-14.3,27.80,West,268,7.0,7.0,82,0.00,,---,0.00,VWS V14.01,2013-12-11 01:11:00,
2013-12-10 19:16:00,-10.3,-14.3,27.81,West,268,5.0,6.0,82,0.00,,---,0.00,VWS V14.01,2013-12-11 01:16:00,
2013-12-10 19:21:00,-10.3,-14.3,27.81,WNW,290,3.0,7.0,82,0.00,,---,0.00,VWS V14.01,2013-12-11 01:21:00,
2013-12-10 19:26:00,-10.3,-14.3,27.81,SSW,201,2.0,5.0,82,0.00,,---,0.00,VWS V14.01,2013-12-11 01:26:00,
2013-12-10 19:31:00,-10.2,-14.2,27.81,West,276,2.0,5.0,82,0.00,,---,0.00,VWS V14.01,2013-12-11 01:31:00,
2013-12-10 19:36:00,-10.2,-14.2,27.81,West,264,4.0,6.0,82,0.00,,---,0.00,VWS V14.01,2013-12-11 01:36:00,
2013-12-10 19:41:00,-10.3,-14.3,27.81,WNW,285,1.0,1.0,82,0.00,,---,0.00,VWS V14.01,2013-12-11 01:41:00,
2013-12-10 19:47:00,-10.3,-14.3,27.81,WNW,290,3.0,3.0,82,0.00,,---,0.00,VWS V14.01,2013-12-11 01:47:00,
2013-12-10 19:52:00,-10.2,-14.2,27.81,West,260,6.0,8.0,82,0.00,,---,0.00,VWS V14.01,2013-12-11 01:52:00,
2013-12-10 19:57:00,-10.2,-14.2,27.81,West,269,2.0,5.0,82,0.00,,---,0.00,VWS V14.01,2013-12-11 01:57:00,
2013-12-10 20:02:00,-10.3,-14.3,27.82,WSW,244,4.0,4.0,82,0.00,,---,0.00,VWS V14.01,2013-12-11 02:02:00,
2013-12-10 20:07:00,-10.3,-14.3,27.82,WSW,242,2.0,3.0,82,0.00,,---,0.00,VWS V14.01,2013-12-11 02:07:00,
2013-12-10 20:12:00,-10.4,-14.4,27.82,West,273,2.0,4.0,82,0.00,,---,0.00,VWS V14.01,2013-12-11 02:12:00,
2013-12-10 20:18:00,-10.5,-14.5,27.83,WNW,299,4.0,7.0,82,0.00,,---,0.00,VWS V14.01,2013-12-11 02:18:00,
2013-12-10 20:23:00,-10.4,-14.4,27.83,NW,325,10.0,10.0,82,0.00,,---,0.00,VWS V14.01,2013-12-11 02:23:00,
2013-12-10 20:28:00,-10.2,-14.2,27.83,WNW,282,4.0,8.0,82,0.00,,---,0.00,VWS V14.01,2013-12-11 02:28:00,
2013-12-10 20:33:00,-10.1,-14.1,27.83,WNW,297,3.0,6.0,82,0.00,,---,0.00,VWS V14.01,2013-12-11 02:33:00,
2013-12-10 20:38:00,-10.2,-14.2,27.83,WSW,244,4.0,13.0,82,0.00,,---,0.00,VWS V14.01,2013-12-11 02:38:00,
2013-12-10 20:44:00,-10.2,-14.2,27.83,West,278,3.0,11.0,82,0.00,,---,0.00,VWS V14.01,2013-12-11 02:44:00,
2013-12-10 20:49:00,-10.2,-14.2,27.83,West,267,3.0,9.0,82,0.00,,---,0.00,VWS V14.01,2013-12-11 02:49:00,
2013-12-10 20:54:00,-10.2,-14.2,27.83,West,281,2.0,6.0,82,0.00,,---,0.00,VWS V14.01,2013-12-11 02:54:00,
2013-12-10 20:59:00,-10.2,-14.2,27.83,WSW,249,0.0,5.0,82,0.00,,---,0.00,VWS V14.01,2013-12-11 02:59:00,
2013-12-10 21:04:00,-10.3,-14.3,27.84,WSW,257,10.0,10.0,82,0.00,,---,0.00,VWS V14.01,2013-12-11 03:04:00,
2013-12-10 21:09:00,-10.3,-14.3,27.84,WNW,290,6.0,9.0,82,0.00,,---,0.00,VWS V14.01,2013-12-11 03:09:00,
2013-12-10 21:14:00,-10.3,-14.3,27.84,WNW,294,6.0,8.0,82,0.00,,---,0.00,VWS V14.01,2013-12-11 03:14:00,
2013-12-10 21:19:00,-10.3,-14.3,27.84,WNW,282,5.0,12.0,82,0.00,,---,0.00,VWS V14.01,2013-12-11 03:19:00,
2013-12-10 21:24:00,-10.3,-14.3,27.84,WNW,290,4.0,8.0,82,0.00,,---,0.00,VWS V14.01,2013-12-11 03:24:00,
2013-12-10 21:29:00,-10.3,-14.3,27.84,WNW,292,5.0,8.0,82,0.00,,---,0.00,VWS V14.01,2013-12-11 03:29:00,
2013-12-10 21:34:00,-10.4,-14.4,27.84,WNW,300,4.0,7.0,82,0.00,,---,0.00,VWS V14.01,2013-12-11 03:34:00,
2013-12-10 21:39:00,-10.6,-14.6,27.84,WNW,288,5.0,10.0,82,0.00,,---,0.00,VWS V14.01,2013-12-11 03:39:00,
2013-12-10 21:45:00,-10.6,-14.6,27.84,WNW,300,4.0,7.0,82,0.00,,---,0.00,VWS V14.01,2013-12-11 03:45:00,
2013-12-10 21:50:00,-10.7,-14.7,27.85,WNW,291,6.0,8.0,82,0.00,,---,0.00,VWS V14.01,2013-12-11 03:50:00,
2013-12-10 21:55:00,-10.8,-14.8,27.85,West,267,1.0,6.0,82,0.00,,---,0.00,VWS V14.01,2013-12-11 03:55:00,
2013-12-10 22:00:00,-10.9,-14.9,27.86,West,278,5.0,6.0,82,0.00,,---,0.00,VWS V14.01,2013-12-11 04:00:00,
2013-12-10 22:05:00,-11.0,-14.9,27.86,West,261,11.0,11.0,82,0.00,,---,0.00,VWS V14.01,2013-12-11 04:05:00,
2013-12-10 22:10:00,-11.0,-14.9,27.86,West,278,3.0,10.0,82,0.00,,---,0.00,VWS V14.01,2013-12-11 04:10:00,
2013-12-10 22:16:00,-11.1,-15.1,27.86,WNW,292,6.0,6.0,82,0.00,,---,0.00,VWS V14.01,2013-12-11 04:16:00,
2013-12-10 22:21:00,-11.1,-15.1,27.86,NW,309,7.0,7.0,82,0.00,,---,0.00,VWS V14.01,2013-12-11 04:21:00,
2013-12-10 22:26:00,-11.2,-15.1,27.86,NW,319,0.0,6.0,82,0.00,,---,0.00,VWS V14.01,2013-12-11 04:26:00,
2013-12-10 22:31:00,-11.3,-15.2,27.86,West,275,3.0,7.0,82,0.00,,---,0.00,VWS V14.01,2013-12-11 04:31:00,
2013-12-10 22:36:00,-11.4,-15.4,27.86,West,278,3.0,5.0,82,0.00,,---,0.00,VWS V14.01,2013-12-11 04:36:00,
2013-12-10 22:41:00,-11.5,-15.4,27.86,WNW,299,3.0,5.0,82,0.00,,---,0.00,VWS V14.01,2013-12-11 04:41:00,
2013-12-10 22:46:00,-11.5,-15.4,27.87,West,281,5.0,7.0,82,0.00,,---,0.00,VWS V14.01,2013-12-11 04:46:00,
2013-12-10 22:51:00,-11.6,-15.5,27.87,WNW,300,6.0,10.0,82,0.00,,---,0.00,VWS V14.01,2013-12-11 04:51:00,
2013-12-10 22:56:00,-11.6,-15.5,27.87,West,273,6.0,9.0,82,0.00,,---,0.00,VWS V14.01,2013-12-11 04:56:00,
2013-12-10 23:01:00,-11.6,-15.5,27.87,WNW,299,4.0,9.0,82,0.00,,---,0.00,VWS V14.01,2013-12-11 05:01:00,
2013-12-10 23:02:00,-11.6,-15.5,27.87,WNW,292,6.0,7.0,82,0.00,,---,0.00,VWS V14.01,2013-12-11 05:02:00,
2013-12-10 23:03:00,-11.6,-15.5,27.87,WNW,282,5.0,5.0,82,0.00,,---,0.00,VWS V14.01,2013-12-11 05:03:00,
2013-12-10 23:04:00,-11.6,-15.5,27.87,West,281,2.0,5.0,82,0.00,,---,0.00,VWS V14.01,2013-12-11 05:04:00,
2013-12-10 23:09:00,-11.6,-15.5,27.87,West,269,3.0,4.0,82,0.00,,---,0.00,VWS V14.01,2013-12-11 05:09:00,
2013-12-10 23:14:00,-11.7,-15.6,27.87,West,281,5.0,8.0,82,0.00,,---,0.00,VWS V14.01,2013-12-11 05:14:00,
2013-12-10 23:20:00,-11.7,-15.6,27.88,WNW,302,7.0,7.0,82,0.00,,---,0.00,VWS V14.01,2013-12-11 05:20:00,
2013-12-10 23:25:00,-11.7,-15.6,27.88,West,273,4.0,11.0,82,0.00,,---,0.00,VWS V14.01,2013-12-11 05:25:00,
2013-12-10 23:30:00,-11.7,-15.6,27.88,NW,311,6.0,6.0,82,0.00,,---,0.00,VWS V14.01,2013-12-11 05:30:00,
2013-12-10 23:35:00,-11.8,-15.7,27.89,WNW,292,1.0,4.0,82,0.00,,---,0.00,VWS V14.01,2013-12-11 05:35:00,
2013-12-10 23:40:00,-11.9,-15.8,27.89,WNW,303,4.0,5.0,82,0.00,,---,0.00,VWS V14.01,2013-12-11 05:40:00,
2013-12-10 23:45:00,-12.0,-15.9,27.89,WNW,301,8.0,8.0,82,0.00,,---,0.00,VWS V14.01,2013-12-11 05:45:00,
2013-12-10 23:50:00,-12.0,-15.9,27.89,WSW,238,1.0,3.0,82,0.00,,---,0.00,VWS V14.01,2013-12-11 05:50:00,
2013-12-10 23:55:00,-12.1,-16.0,27.89,West,280,4.0,4.0,82,0.00,,---,0.00,VWS V14.01,2013-12-11 05:55:00,